Orbital Elements at Epoch 2459000.5 (2020-May-31.0) TDB
Reference: JPL 17 (heliocentric ecliptic J2000)
Element | Value | Uncertainty (1-sigma) | Units |
e | .01179398176675579 | 4.8053e-08 | |
a | 2.866555319761217 | 2.1062e-08 | au |
q | 2.832747218586556 | 1.3979e-07 | au |
i | 1.961854944604219 | 5.2069e-06 | deg |
node | 5.335882392190471 | 0.00013886 | deg |
peri | 154.2284148948454 | 0.00024351 | deg |
M | 98.26875652162025 | 0.00019896 | deg |
tp | 2458516.604172055246 (2019-Feb-02.10417206) | 0.00098005 | TDB |
period | 1772.714993313109 4.85 | 1.9537e-05 5.349e-08 | d yr |
n | .2030783297698517 | 2.2382e-09 | deg/d |
Q | 2.900363420935878 | 2.131e-08 | au |
|
| | Orbit Determination Parameters
Additional Information
|